Regional Weather Roundup
Issued by NWS

Home | Current Version | Previous Version | Graphics & Text | Print | Product List | Glossary On
Versions: 1 2 3 4 5 6 7 8 9 10 11 12 13 14 15 16 17 18 19 20 21 22 23 24 25 26 27 28 29 30 31 32 33 34 35 36 37 38 39 40 41 42 43 44 45 46 47 48 49 50
000
ASUS43 KOAX 171602
RWRNE

WEATHER ROUNDUP FOR NEBRASKA
NATIONAL WEATHER SERVICE OMAHA NE
1000 AM CST TUE JAN 17 2017

NOTES: SATELLITE DATA IS BEING USED TO AUGMENT CLOUD COVER ABOVE
       12000 FEET.
       "FAIR" INDICATES FEW OR NO CLOUDS BELOW 12,000 FEET WITH NO
       SIGNIFICANT WEATHER AND/OR OBSTRUCTIONS TO VISIBILITY.

  * THESE STATIONS DO NOT REPORT WEATHER SUCH AS RAIN...SNOW OR FOG.

NEZ001>004-019>022-054>056-171700-
NEBRASKA PANHANDLE

CITY           SKY/WX    TMP DP  RH WIND       PRES   REMARKS
SCOTTSBLUFF    CLOUDY    19  13  77 N3        30.05S
ALLIANCE       SUNNY     19  15  84 CALM      30.03R
CHADRON        SUNNY      9   4  80 W5        30.00F WCI   1
KIMBALL        SUNNY     23  18  78 W7        30.05R WCI  15
SIDNEY         CLOUDY    24  15  68 W7        30.07R WCI  16
$$

NEZ057>060-069>072-079>082-171700-
SOUTHWEST NEBRASKA

CITY           SKY/WX    TMP DP  RH WIND       PRES   REMARKS
NORTH PLATTE   SUNNY     28  22  78 NW8       30.10R WCI  20
IMPERIAL       SUNNY     26  17  68 W7        30.10S WCI  18
LEXINGTON      SUNNY     29  23  77 W9        30.10R WCI  20
MCCOOK         SUNNY     28  22  78 W13       30.12R WCI  17
OGALLALA       CLOUDY    24  18  75 W9        30.11R WCI  15
$$

NEZ005>010-023>029-035>040-094-171700-
NORTH CENTRAL NEBRASKA

CITY           SKY/WX    TMP DP  RH WIND       PRES   REMARKS
VALENTINE      CLOUDY    26  17  68 W8        30.03S WCI  18
AINSWORTH      SUNNY     28  22  79 SW7       30.02F WCI  21
BROKEN BOW     SUNNY     26  20  77 CALM      30.07R
O`NEILL        SUNNY     25  21  85 W8        30.05S WCI  17
ORD            SUNNY     24  18  77 NW7       30.08R WCI  16
THEDFORD       SUNNY     29  22  73 W6        30.05S WCI  23
$$

NEZ041-046>049-061>064-073>077-083>087-171700-
SOUTH CENTRAL NEBRASKA

CITY           SKY/WX    TMP DP  RH WIND       PRES   REMARKS
AURORA         SUNNY     27  24  88 CALM      30.10R
HASTINGS       SUNNY     28  22  78 NW8       30.11R WCI  20
HEBRON         SUNNY     28  25  86 NW5       30.13R WCI  23
HOLDREGE       SUNNY     30  26  83 NW3       30.10R
KEARNEY *      SUNNY     28  21  74 CALM      30.10R
YORK           SUNNY     27  23  86 MISG      30.11R
$$

NEZ011>018-030>034-042>045-171700-
NORTHEAST NEBRASKA

CITY           SKY/WX    TMP DP  RH WIND       PRES   REMARKS
NORFOLK        SUNNY     22  17  81 W8        30.08R WCI  12
ALBION         CLOUDY    22  19  86 NW3       30.08S FOG
BLAIR          CLOUDY    25  24  93 W5        30.08R FOG     WCI  19
FREMONT        CLOUDY    25  22  87 NW12      30.11R WCI  15
TEKAMAH        CLOUDY    24  20  84 NW10      30.11R WCI  14
WAYNE          SUNNY     21  18  86 NW3       30.08R
$$

NEZ050>053-065>068-078-088>093-171700-
SOUTHEAST NEBRASKA

CITY           SKY/WX    TMP DP  RH WIND       PRES   REMARKS
LINCOLN        SUNNY     28  21  75 NW7       30.13R WCI  21
OMAHA EPPLEY   CLOUDY    27  22  81 NW9       30.10R WCI  18
BEATRICE       SUNNY     29  25  84 NW6       30.12R WCI  23
FALLS CITY     CLOUDY    33  31  92 W9        30.10R WCI  25
NEBRASKA CITY  CLOUDY    28  28 100 NW9       30.10R FOG     WCI  20
PLATTSMOUTH    CLOUDY    28  24  86 W14       30.09R FOG     WCI  16
$$

NEZ044-045-051>053-067-171700-
OMAHA AREA

CITY           SKY/WX    TMP DP  RH WIND       PRES   REMARKS
OMAHA EPPLEY   CLOUDY    27  22  81 NW9       30.10R WCI  18
BLAIR          CLOUDY    25  24  93 W5        30.08R FOG     WCI  19
FREMONT        CLOUDY    25  22  87 NW12      30.11R WCI  15
MILLARD        CLOUDY    28  24  85 NW9       30.11R WCI  20
OFFUTT AFB     CLOUDY    28  27  99 W8        30.10R WCI  20
PLATTSMOUTH    CLOUDY    28  24  86 W14       30.09R FOG     WCI  16
WAHOO          FAIR      26  21  81 NW10      30.11R WCI  16
$$



USA.gov is the U.S. government's official web portal to all federal, state and local government web resources and services.